period_start,C,m1,H,J0,J1,J2,J3,J4,J5,JA,JB,JC,JD,JJ,JK,JN,#
2014-07-30 00:02:08,0.81,2.65,1.00,29.70,33.88,35.98,9.28,42.83,1003.95,2009.85,2397.46,2622.69,2772.41,499.93,479.59,24.52,0000 0000 0000 0000 000000
2014-07-30 00:07:09,0.79,2.68,1.00,29.72,33.90,36.00,9.25,42.86,1003.95,2009.74,2387.23,2615.73,2764.28,499.80,479.38,24.56,0000 0000 0000 0000 000000
2014-07-30 00:12:10,0.77,2.72,1.00,29.76,33.93,36.02,9.39,43.00,1004.00,2009.22,2376.98,2608.46,2755.94,500.69,480.09,24.60,0000 0000 0000 0000 000000
2014-07-30 00:17:11,0.89,2.75,1.00,29.81,33.96,36.05,9.24,43.13,1003.96,2009.01,2366.08,2600.79,2747.27,499.75,479.38,24.64,0000 0000 0000 0000 000000
2014-07-30 00:22:12,0.88,2.79,1.00,29.87,33.98,36.06,9.29,43.08,1004.00,2009.00,2355.30,2593.16,2738.47,499.85,479.23,24.68,0000 0000 0000 0000 000000
2014-07-30 00:27:14,0.97,2.83,1.00,29.90,34.01,36.09,9.21,43.11,1004.00,2009.00,2343.85,2585.07,2729.22,500.35,479.69,24.73,0000 0000 0000 0000 000000
2014-07-30 00:32:15,0.94,2.87,1.00,29.93,34.05,36.13,9.25,43.21,1003.97,2008.92,2332.27,2577.08,2720.03,500.07,479.26,24.77,0000 0000 0000 0000 000000
2014-07-30 00:37:16,0.91,2.91,1.00,29.97,34.08,36.16,9.43,43.33,1003.95,2008.40,2320.74,2568.96,2710.68,500.61,479.66,24.81,0000 0000 0000 0000 000000
2014-07-30 00:42:16,0.95,2.95,1.00,30.03,34.11,36.19,9.21,43.42,1003.94,2008.10,2308.92,2560.78,2701.23,500.18,479.36,24.85,0000 0000 0000 0000 000000
2014-07-30 00:47:18,1.00,2.99,1.00,30.07,34.14,36.23,9.31,43.47,1003.94,2008.00,2297.20,2552.61,2691.66,500.31,479.37,24.89,0000 0000 0000 0000 000000
2014-07-30 00:52:19,1.02,3.03,1.00,30.11,34.18,36.26,9.28,43.48,1003.93,2008.00,2285.22,2544.27,2682.14,500.19,479.23,24.94,0000 0000 0000 0000 000000
2014-07-30 00:57:20,1.02,3.08,1.00,30.15,34.21,36.29,9.19,43.71,1003.94,2007.99,2273.06,2535.95,2672.58,499.82,478.75,24.98,0000 0000 0000 0000 000000
2014-07-30 01:02:22,1.00,3.12,1.00,30.19,34.25,36.32,9.33,43.81,1003.96,2007.78,2261.10,2527.64,2663.07,500.20,479.07,25.02,0000 0000 0000 0000 000000
2014-07-30 01:07:23,0.92,3.16,1.00,30.25,34.28,36.35,9.28,43.78,1004.05,2007.32,2249.61,2519.55,2653.83,500.05,478.83,25.06,0000 0000 0000 0000 000000
2014-07-30 01:12:24,0.98,3.20,1.00,30.31,34.31,36.39,9.33,43.84,1004.05,2007.04,2238.14,2511.44,2644.55,500.52,479.24,25.10,0000 0000 0000 0000 000000
2014-07-30 01:17:25,1.00,3.24,1.00,30.34,34.35,36.42,9.16,43.90,1004.10,2007.00,2226.77,2503.50,2635.45,499.72,478.43,25.15,0000 0000 0000 0000 000000
2014-07-30 01:22:26,1.01,3.28,1.00,30.41,34.39,36.46,9.34,43.92,1004.09,2006.97,2215.30,2495.55,2626.33,500.21,478.96,25.19,0000 0000 0000 0000 000000
2014-07-30 01:27:27,0.98,3.32,1.00,30.47,34.42,36.49,9.18,44.02,1003.99,2006.74,2203.87,2487.56,2617.29,499.85,478.32,25.23,0000 0000 0000 0000 000000
2014-07-30 01:32:29,0.98,3.37,1.00,30.51,34.46,36.52,9.24,44.08,1003.96,2006.26,2192.30,2479.55,2608.16,500.02,478.35,25.27,0000 0000 0000 0000 000000
2014-07-30 01:37:30,0.97,3.41,1.00,30.56,34.49,36.57,9.31,44.08,1003.94,2006.07,2181.17,2471.77,2599.32,500.56,478.77,25.31,0000 0000 0000 0000 000000
2014-07-30 01:42:32,0.97,3.45,1.00,30.61,34.53,36.60,9.19,44.22,1003.97,2006.00,2170.31,2464.08,2590.55,500.10,478.48,25.36,0000 0000 0000 0000 000000
2014-07-30 01:47:33,0.91,3.49,1.00,30.67,34.57,36.64,9.22,44.28,1004.08,2005.99,2160.07,2456.99,2582.53,499.86,478.07,25.40,0000 0000 0000 0000 000000
2014-07-30 01:52:34,0.90,3.53,1.00,30.70,34.60,36.67,9.36,44.23,1004.13,2005.95,2150.29,2450.07,2574.65,500.37,478.52,25.44,0000 0000 0000 0000 000000
2014-07-30 01:57:35,0.87,3.56,1.00,30.74,34.64,36.72,9.30,44.17,1004.19,2005.39,2140.14,2442.90,2566.48,500.26,478.37,25.48,0000 0000 0000 0000 000000
2014-07-30 02:02:37,0.97,3.60,1.00,30.80,34.68,36.76,9.18,44.38,1004.10,2005.04,2129.32,2435.40,2558.03,500.00,477.75,25.52,0000 0000 0000 0000 000000
2014-07-30 02:07:38,0.98,3.64,1.00,30.87,34.72,36.79,9.20,44.44,1004.14,2005.00,2118.44,2428.15,2549.75,499.96,478.07,25.56,0000 0000 0000 0000 000000
2014-07-30 02:12:39,0.99,3.68,1.00,30.94,34.76,36.83,9.31,44.43,1004.19,2004.98,2107.97,2420.75,2541.39,500.34,478.14,25.61,0000 0000 0000 0000 000000
2014-07-30 02:17:40,0.96,3.72,1.00,30.98,34.81,36.87,9.33,44.55,1004.20,2004.58,2097.27,2413.27,2532.89,500.27,478.02,25.65,0000 0000 0000 0000 000000
2014-07-30 02:22:41,0.96,3.76,1.00,31.05,34.85,36.92,9.32,44.64,1004.26,2004.13,2086.41,2405.78,2524.38,500.23,477.89,25.69,0000 0000 0000 0000 000000
2014-07-30 02:27:42,1.06,3.81,1.00,31.12,34.89,36.96,9.25,44.71,1004.35,2003.99,2075.74,2398.04,2515.50,500.42,477.94,25.73,0000 0000 0000 0000 000000
2014-07-30 02:32:44,1.30,3.86,1.00,31.18,34.94,37.01,9.29,45.19,1004.34,2003.92,2062.38,2388.99,2505.19,499.94,477.45,25.77,0000 0000 0000 0000 000000
2014-07-30 02:37:45,1.10,3.91,1.00,31.25,34.99,37.06,9.33,45.30,1004.39,2003.33,2049.51,2380.26,2495.36,500.47,477.86,25.82,0000 0000 0000 0000 000000
2014-07-30 02:42:46,1.34,3.96,1.00,31.29,35.03,37.11,9.26,45.36,1004.39,2003.01,2035.89,2371.01,2484.77,500.28,477.69,25.86,0000 0000 0000 0000 000000
2014-07-30 02:47:47,1.43,4.02,1.00,31.35,35.08,37.15,9.15,45.19,1004.40,2002.98,2021.04,2361.43,2473.67,499.54,476.81,25.90,0000 0000 0000 0000 000000
2014-07-30 02:52:48,1.39,4.08,1.00,31.41,35.12,37.20,9.30,45.42,1004.41,2002.66,2005.92,2351.62,2462.37,500.34,477.52,25.94,0000 0000 0000 0000 000000
2014-07-30 02:57:50,1.35,4.14,1.00,31.45,35.16,37.25,9.15,45.48,1004.35,2002.12,1991.07,2342.05,2451.42,499.70,476.80,25.98,0000 0000 0000 0000 000000
2014-07-30 03:02:51,1.25,4.19,1.00,31.49,35.21,37.29,9.23,45.33,1004.34,2002.00,1978.09,2333.43,2441.52,500.09,477.10,26.03,0000 0000 0000 0000 000000
2014-07-30 03:07:52,1.26,4.25,1.00,31.52,35.26,37.35,9.24,45.44,1004.30,2001.96,1965.71,2324.96,2431.95,499.95,476.90,26.07,0000 0000 0000 0000 000000
2014-07-30 03:12:53,1.27,4.29,1.00,31.59,35.30,37.40,9.25,45.62,1004.19,2001.65,1952.63,2316.14,2422.04,500.13,476.94,26.11,0000 0000 0000 0000 000000
2014-07-30 03:17:54,1.23,4.35,1.00,31.65,35.35,37.44,9.28,45.92,1004.26,2001.06,1940.02,2307.48,2412.25,499.92,476.71,26.15,0000 0000 0000 0000 000000
2014-07-30 03:22:55,1.29,4.41,1.00,31.71,35.40,37.50,9.35,46.11,1004.31,2001.00,1927.58,2298.89,2402.51,500.53,477.13,26.19,0000 0000 0000 0000 000000
2014-07-30 03:27:57,1.27,4.46,1.00,31.76,35.44,37.55,9.39,46.35,1004.35,2000.91,1915.51,2290.32,2392.90,500.56,477.15,26.24,0000 0000 0000 0000 000000
2014-07-30 03:32:58,1.14,4.51,1.00,31.85,35.49,37.61,9.08,46.07,1004.39,2000.26,1904.00,2282.07,2383.73,499.29,475.87,26.28,0000 0000 0000 0000 000000
2014-07-30 03:37:59,1.19,4.56,1.00,31.90,35.54,37.66,9.26,46.32,1004.40,2000.01,1892.76,2274.13,2374.84,500.20,476.60,26.32,0000 0000 0000 0000 000000
2014-07-30 03:43:00,1.22,4.61,1.00,31.93,35.60,37.72,9.27,46.39,1004.41,1999.99,1881.43,2266.16,2366.08,500.03,476.50,26.36,0000 0000 0000 0000 000000
2014-07-30 03:48:01,1.19,4.66,1.00,32.00,35.65,37.77,9.17,46.48,1004.41,1999.70,1870.09,2258.08,2357.12,499.98,476.28,26.40,0000 0000 0000 0000 000000
2014-07-30 03:53:02,1.22,4.71,1.00,32.05,35.70,37.83,9.34,46.61,1004.41,1999.08,1858.70,2249.84,2347.97,500.55,476.56,26.45,0000 0000 0000 0000 000000
2014-07-30 03:58:04,1.27,4.76,1.00,32.11,35.75,37.89,9.20,46.70,1004.41,1999.00,1847.23,2241.74,2338.93,500.12,476.20,26.49,0000 0000 0000 0000 000000
2014-07-30 04:03:05,1.23,4.82,1.00,32.18,35.81,37.94,9.35,46.89,1004.41,1998.96,1836.05,2234.02,2330.10,500.10,476.00,26.53,0000 0000 0000 0000 000000
2014-07-30 04:08:06,1.17,4.87,1.00,32.23,35.86,38.00,9.20,47.07,1004.43,1998.48,1824.95,2226.10,2321.26,499.95,475.88,26.57,0000 0000 0000 0000 000000
2014-07-30 04:13:07,1.21,4.92,1.00,32.29,35.91,38.06,9.23,47.07,1004.45,1998.07,1813.94,2218.29,2312.66,500.05,476.05,26.61,0000 0000 0000 0000 000000
2014-07-30 04:18:08,1.19,4.97,1.00,32.31,35.97,38.11,9.26,47.26,1004.45,1998.00,1803.52,2210.92,2304.48,500.26,476.09,26.65,0000 0000 0000 0000 000000
2014-07-30 04:23:09,1.19,5.02,1.00,32.35,36.02,38.16,9.17,47.29,1004.52,1997.95,1793.15,2203.56,2296.38,499.82,475.62,26.70,0000 0000 0000 0000 000000
2014-07-30 04:28:10,1.10,5.06,1.00,32.40,36.07,38.21,9.17,47.27,1004.66,1997.44,1782.86,2196.24,2288.27,499.76,475.61,26.74,0000 0000 0000 0000 000000
2014-07-30 04:33:11,1.17,5.11,1.00,32.46,36.13,38.26,9.23,47.52,1004.77,1997.02,1772.71,2188.96,2280.18,500.02,475.61,26.78,0000 0000 0000 0000 000000
2014-07-30 04:38:13,1.20,5.16,1.00,32.53,36.18,38.32,9.18,47.58,1004.82,1996.99,1762.53,2181.73,2272.19,499.96,475.65,26.82,0000 0000 0000 0000 000000
2014-07-30 04:43:14,1.18,5.21,1.00,32.60,36.23,38.37,9.26,47.77,1004.79,1996.87,1752.37,2174.58,2264.21,500.13,475.57,26.86,0000 0000 0000 0000 000000
2014-07-30 04:48:15,1.14,5.26,1.00,32.65,36.28,38.42,9.19,48.12,1004.83,1996.31,1742.26,2167.41,2256.18,499.98,475.42,26.91,0000 0000 0000 0000 000000
2014-07-30 04:53:16,1.21,5.31,1.00,32.70,36.33,38.47,9.21,47.99,1004.87,1996.02,1732.18,2160.19,2248.22,500.06,475.44,26.95,0000 0000 0000 0000 000000
2014-07-30 04:58:18,1.23,5.36,1.00,32.74,36.38,38.52,9.24,48.02,1004.88,1996.00,1722.11,2152.90,2240.25,500.05,475.37,26.99,0000 0000 0000 0000 000000
2014-07-30 05:03:19,1.32,5.42,1.00,32.78,36.44,38.58,9.26,48.18,1004.85,1995.90,1711.47,2145.21,2231.89,500.07,475.32,27.03,0000 0000 0000 0000 000000
2014-07-30 05:08:20,1.24,5.47,1.00,32.82,36.49,38.62,9.25,48.31,1004.86,1995.40,1700.69,2137.43,2223.39,500.25,475.43,27.07,0000 0000 0000 0000 000000
2014-07-30 05:13:21,1.27,5.52,1.00,32.87,36.54,38.67,9.15,48.23,1004.87,1995.01,1690.35,2129.94,2215.10,500.12,475.21,27.12,0000 0000 0000 0000 000000
2014-07-30 05:18:22,1.31,5.58,1.00,32.92,36.59,38.72,9.17,48.31,1004.89,1994.98,1680.14,2122.46,2206.83,499.74,474.94,27.16,0000 0000 0000 0000 000000
2014-07-30 05:23:24,1.26,5.63,1.00,32.97,36.64,38.77,9.16,48.31,1004.90,1994.79,1669.86,2115.12,2198.74,499.70,474.59,27.20,0000 0000 0000 0000 000000
2014-07-30 05:28:25,1.19,5.68,1.00,33.01,36.69,38.81,9.19,48.42,1004.89,1994.25,1659.77,2108.17,2190.92,499.94,474.86,27.24,0000 0000 0000 0000 000000
2014-07-30 05:33:27,1.25,5.73,1.00,33.05,36.74,38.86,9.27,48.63,1004.90,1994.01,1649.82,2101.17,2183.17,500.14,474.92,27.28,0000 0000 0000 0000 000000
2014-07-30 05:38:28,1.33,5.79,1.00,33.08,36.79,38.91,9.29,48.73,1004.90,1993.99,1639.56,2093.95,2175.24,500.07,475.01,27.33,0000 0000 0000 0000 000000
2014-07-30 05:43:30,1.26,5.84,1.00,33.13,36.84,38.96,9.13,48.82,1004.90,1993.83,1629.52,2086.81,2167.49,499.94,474.63,27.37,0000 0000 0000 0000 000000
2014-07-30 05:48:31,1.19,5.89,1.00,33.19,36.89,39.01,9.20,48.90,1004.90,1993.23,1619.65,2079.93,2159.91,500.26,474.93,27.41,0000 0000 0000 0000 000000
2014-07-30 05:53:33,1.27,5.94,1.00,33.22,36.94,39.06,9.24,49.31,1004.90,1993.01,1609.95,2073.11,2152.39,500.11,474.64,27.45,0000 0000 0000 0000 000000
2014-07-30 05:58:34,1.27,6.00,1.00,33.26,36.99,39.11,9.22,49.33,1004.91,1992.99,1600.22,2066.37,2144.96,500.08,474.56,27.49,0000 0000 0000 0000 000000
2014-07-30 06:03:35,1.19,6.05,1.00,33.32,37.04,39.15,9.24,49.48,1004.91,1992.64,1590.67,2059.78,2137.62,500.35,474.82,27.54,0000 0000 0000 0000 000000
2014-07-30 06:08:36,1.24,6.10,1.00,33.37,37.09,39.20,9.21,49.45,1004.91,1992.09,1580.89,2053.22,2130.35,500.32,474.65,27.58,0000 0000 0000 0000 000000
2014-07-30 06:13:37,1.28,6.15,1.00,33.41,37.14,39.25,9.20,49.72,1004.92,1992.00,1571.12,2046.77,2123.09,499.82,474.08,27.62,0000 0000 0000 0000 000000
2014-07-30 06:18:38,1.30,6.21,1.00,33.44,37.19,39.29,9.19,49.75,1004.93,1991.99,1561.51,2040.35,2115.85,499.59,474.10,27.66,0000 0000 0000 0000 000000
2014-07-30 06:23:39,1.29,6.26,1.00,33.50,37.24,39.34,9.23,49.88,1004.93,1991.83,1551.71,2033.66,2108.63,500.13,474.29,27.70,0000 0000 0000 0000 000000
2014-07-30 06:28:40,1.22,6.31,1.00,33.54,37.28,39.39,9.18,50.05,1004.92,1991.28,1541.97,2027.09,2101.45,500.21,474.40,27.74,0000 0000 0000 0000 000000
2014-07-30 06:33:42,1.27,6.37,1.00,33.58,37.33,39.43,9.23,50.06,1004.93,1991.02,1532.64,2020.69,2094.37,499.96,473.86,27.79,0000 0000 0000 0000 000000
2014-07-30 06:38:43,1.35,6.42,1.00,33.62,37.38,39.47,9.17,50.31,1004.92,1990.99,1522.80,2014.26,2087.20,499.87,473.83,27.83,0000 0000 0000 0000 000000
2014-07-30 06:43:44,1.34,6.48,1.00,33.63,37.42,39.52,9.27,50.47,1004.93,1990.83,1512.86,2007.63,2079.93,500.21,474.16,27.87,0000 0000 0000 0000 000000
2014-07-30 06:48:45,1.31,6.53,1.00,33.68,37.47,39.57,9.22,50.59,1004.91,1990.34,1502.85,2000.99,2072.61,499.89,473.78,27.91,0000 0000 0000 0000 000000
2014-07-30 06:53:46,1.42,6.59,1.00,33.72,37.52,39.62,9.20,50.85,1004.91,1990.02,1492.53,1994.26,2065.18,500.06,473.79,27.95,0000 0000 0000 0000 000000
2014-07-30 06:58:48,1.49,6.66,1.00,33.75,37.57,39.66,9.21,51.10,1004.91,1990.00,1482.03,1987.36,2057.64,499.74,473.47,28.00,0000 0000 0000 0000 000000
2014-07-30 07:03:49,1.43,6.72,1.00,33.79,37.62,39.71,9.24,51.10,1004.92,1989.81,1471.41,1980.66,2050.05,500.15,473.70,28.04,0000 0000 0000 0000 000000
2014-07-30 07:08:50,1.35,6.77,1.00,33.85,37.66,39.75,9.22,51.31,1004.91,1989.24,1461.23,1973.98,2042.92,499.89,473.66,28.08,0000 0000 0000 0000 000000
2014-07-30 07:13:52,1.41,6.83,1.00,33.88,37.71,39.80,9.20,51.53,1004.92,1989.00,1451.36,1967.54,2035.79,499.84,473.42,28.12,0000 0000 0000 0000 000000
2014-07-30 07:18:53,1.45,6.89,1.00,33.94,37.75,39.84,9.19,51.63,1004.92,1989.00,1441.36,1961.09,2028.72,499.59,473.02,28.16,0000 0000 0000 0000 000000
2014-07-30 07:23:54,1.33,6.95,1.00,34.00,37.79,39.89,9.23,51.83,1004.93,1988.73,1431.67,1954.84,2021.75,500.09,473.49,28.21,0000 0000 0000 0000 000000
2014-07-30 07:28:55,1.30,7.01,1.00,34.04,37.84,39.93,9.24,51.86,1004.94,1988.18,1422.35,1948.80,2015.16,500.08,473.52,28.25,0000 0000 0000 0000 000000
2014-07-30 07:33:57,1.37,7.06,1.00,34.08,37.88,39.97,9.22,52.05,1004.96,1988.02,1412.94,1942.76,2008.53,499.61,473.01,28.29,0000 0000 0000 0000 000000
2014-07-30 07:38:58,1.34,7.12,1.00,34.11,37.93,40.01,9.25,52.30,1005.03,1987.97,1403.87,1936.86,2002.01,499.78,472.95,28.33,0000 0000 0000 0000 000000
2014-07-30 07:43:59,1.26,7.18,1.00,34.17,37.97,40.06,9.15,52.27,1005.02,1987.68,1394.87,1931.22,1995.79,499.84,473.00,28.37,0000 0000 0000 0000 000000
2014-07-30 07:49:00,1.20,7.23,1.00,34.22,38.02,40.11,9.24,52.46,1005.10,1987.19,1386.27,1925.79,1989.85,500.06,473.25,28.41,0000 0000 0000 0000 000000
2014-07-30 07:54:01,1.41,7.28,1.00,34.26,38.06,40.15,9.25,52.73,1005.27,1987.00,1376.94,1920.06,1983.65,500.18,473.38,28.46,0000 0000 0000 0000 000000
2014-07-30 07:59:02,1.45,7.34,1.00,34.31,38.11,40.19,9.23,52.82,1005.32,1987.00,1367.33,1914.10,1977.09,499.92,473.02,28.50,0000 0000 0000 0000 000000
2014-07-30 08:04:04,1.44,7.40,1.00,34.36,38.16,40.24,9.16,53.10,1005.31,1986.79,1357.53,1908.05,1970.45,499.37,472.43,28.54,0000 0000 0000 0000 000000
2014-07-30 08:09:05,1.36,7.46,1.00,34.41,38.20,40.29,9.25,53.24,1005.37,1986.23,1347.88,1902.08,1963.90,500.06,473.11,28.58,0000 0000 0000 0000 000000
2014-07-30 08:14:06,1.37,7.52,1.00,34.45,38.25,40.33,9.29,53.51,1005.38,1986.01,1338.93,1896.48,1957.63,500.18,473.02,28.62,0000 0000 0000 0000 000000
2014-07-30 08:19:08,1.38,7.58,1.00,34.48,38.29,40.37,9.27,53.66,1005.40,1986.00,1329.97,1890.99,1951.62,500.23,473.28,28.67,0000 0000 0000 0000 000000
2014-07-30 08:24:09,1.00,7.62,1.00,34.52,38.34,40.42,9.29,53.55,1005.40,1985.89,1323.08,1886.42,1946.65,500.53,473.34,28.71,0000 0000 0000 0000 000000
2014-07-30 08:29:10,0.90,7.66,1.00,34.58,38.38,40.47,9.20,53.67,1005.44,1985.39,1316.87,1882.43,1942.32,500.31,473.08,28.75,0000 0000 0000 0000 000000
2014-07-30 08:34:12,1.01,7.70,1.00,34.60,38.43,40.52,9.19,53.93,1005.41,1985.08,1310.40,1878.22,1937.77,500.30,473.06,28.79,0000 0000 0000 0000 000000
2014-07-30 08:39:13,1.09,7.75,1.00,34.65,38.47,40.55,9.21,54.15,1005.44,1985.00,1303.95,1873.66,1932.91,500.02,472.54,28.83,0000 0000 0000 0000 000000
2014-07-30 08:44:15,1.01,7.79,1.00,34.70,38.52,40.60,9.25,54.27,1005.57,1984.98,1297.58,1869.61,1928.49,500.11,472.81,28.88,0000 0000 0000 0000 000000
2014-07-30 08:49:16,0.97,7.84,1.00,34.74,38.56,40.65,9.23,54.18,1005.72,1984.81,1291.45,1865.57,1924.16,499.80,472.51,28.92,0000 0000 0000 0000 000000
2014-07-30 08:54:17,0.96,7.88,1.00,34.78,38.60,40.69,9.17,54.47,1005.84,1984.32,1285.24,1861.44,1919.73,499.99,472.56,28.96,0000 0000 0000 0000 000000
2014-07-30 08:59:18,0.97,7.92,1.00,34.83,38.64,40.73,9.18,54.54,1005.85,1984.04,1279.19,1857.42,1915.38,499.81,472.40,29.00,0000 0000 0000 0000 000000
2014-07-30 09:04:19,0.99,7.96,1.00,34.84,38.69,40.77,9.22,54.73,1005.85,1984.00,1273.24,1853.63,1911.16,499.95,472.47,29.04,0000 0000 0000 0000 000000
2014-07-30 09:09:20,1.34,8.00,1.00,34.87,38.73,40.81,9.22,54.87,1005.87,1983.99,1266.46,1848.87,1905.99,499.82,472.34,29.09,0000 0000 0000 0000 000000
2014-07-30 09:14:22,1.23,8.07,1.00,34.89,38.77,40.84,9.26,55.05,1005.87,1983.65,1258.80,1842.43,1899.32,500.09,472.44,29.13,0000 0000 0000 0000 000000
2014-07-30 09:19:23,0.98,8.11,1.00,34.92,38.81,40.89,9.28,55.10,1005.87,1983.20,1252.69,1838.47,1895.05,499.73,472.12,29.17,0000 0000 0000 0000 000000
2014-07-30 09:24:24,1.04,8.15,1.00,34.95,38.85,40.93,9.21,55.22,1005.87,1983.01,1246.56,1834.50,1890.74,499.84,472.23,29.21,0000 0000 0000 0000 000000
2014-07-30 09:29:25,1.06,8.19,1.00,34.97,38.89,40.97,9.21,55.38,1005.87,1983.00,1240.36,1830.54,1886.43,500.07,472.36,29.25,0000 0000 0000 0000 000000
2014-07-30 09:34:27,1.08,8.24,1.00,35.01,38.94,41.01,9.20,55.49,1005.87,1982.99,1234.30,1826.38,1881.95,499.61,471.97,29.29,0000 0000 0000 0000 000000
2014-07-30 09:39:28,1.02,8.28,1.00,35.05,38.97,41.05,9.16,55.73,1005.88,1982.85,1228.14,1822.42,1877.68,499.59,471.94,29.34,0000 0000 0000 0000 000000
2014-07-30 09:44:29,1.00,8.33,1.00,35.07,39.01,41.08,9.24,55.88,1005.89,1982.37,1222.04,1818.33,1873.36,500.26,472.42,29.38,0000 0000 0000 0000 000000
2014-07-30 09:49:30,1.00,8.37,1.00,35.11,39.05,41.12,9.19,55.98,1005.90,1982.05,1216.09,1814.35,1869.06,499.95,472.14,29.42,0000 0000 0000 0000 000000
2014-07-30 09:54:31,1.01,8.41,1.00,35.13,39.09,41.15,9.26,56.18,1005.90,1982.00,1210.35,1810.65,1865.06,500.11,472.28,29.46,0000 0000 0000 0000 000000
2014-07-30 09:59:33,1.04,8.45,1.00,35.15,39.12,41.19,9.29,56.23,1005.99,1981.99,1204.41,1806.92,1861.01,500.27,472.42,29.50,0000 0000 0000 0000 000000
2014-07-30 10:04:34,1.05,8.50,1.00,35.19,39.16,41.23,9.26,56.41,1006.05,1981.86,1198.34,1803.11,1856.91,500.16,472.29,29.55,0000 0000 0000 0000 000000
2014-07-30 10:09:35,1.00,8.54,1.00,35.24,39.20,41.27,9.23,56.52,1006.19,1981.33,1192.35,1799.18,1852.81,500.11,472.15,29.59,0000 0000 0000 0000 000000
2014-07-30 10:14:36,1.00,8.58,1.00,35.28,39.24,41.31,9.25,56.78,1006.31,1981.04,1186.49,1795.39,1848.71,500.12,472.49,29.63,0000 0000 0000 0000 000000
2014-07-30 10:19:37,1.10,8.63,1.00,35.31,39.27,41.34,9.23,56.92,1006.36,1981.00,1180.55,1791.45,1844.39,499.95,472.17,29.67,0000 0000 0000 0000 000000
2014-07-30 10:24:38,1.06,8.67,1.00,35.32,39.31,41.38,9.29,57.05,1006.36,1980.98,1174.70,1787.69,1840.31,500.15,472.29,29.71,0000 0000 0000 0000 000000
2014-07-30 10:29:39,0.97,8.71,1.00,35.35,39.34,41.41,9.19,57.13,1006.36,1980.87,1169.20,1784.23,1836.54,499.89,471.82,29.76,0000 0000 0000 0000 000000
2014-07-30 10:34:40,0.90,8.75,1.00,35.40,39.38,41.45,9.29,57.24,1006.36,1980.47,1163.79,1780.84,1832.87,500.10,472.01,29.80,0000 0000 0000 0000 000000
2014-07-30 10:39:41,0.93,8.79,1.00,35.43,39.41,41.49,9.34,57.37,1006.37,1980.05,1158.35,1777.49,1829.23,500.12,472.13,29.84,0000 0000 0000 0000 000000
2014-07-30 10:44:43,1.25,8.84,1.00,35.46,39.44,41.53,9.20,57.45,1006.38,1980.00,1152.22,1772.90,1824.45,500.01,471.75,29.88,0000 0000 0000 0000 000000
2014-07-30 10:49:44,0.98,8.88,1.00,35.50,39.48,41.56,9.22,57.57,1006.38,1980.00,1146.82,1769.50,1820.72,500.02,471.79,29.92,0000 0000 0000 0000 000000
2014-07-30 10:54:45,0.96,8.93,1.00,35.53,39.52,41.59,9.22,57.77,1006.38,1979.91,1141.51,1766.30,1817.23,500.14,471.82,29.97,0000 0000 0000 0000 000000
2014-07-30 10:59:47,0.96,8.97,1.00,35.56,39.55,41.63,9.24,57.89,1006.39,1979.48,1136.00,1762.89,1813.64,500.04,471.71,30.01,0000 0000 0000 0000 000000
2014-07-30 11:04:48,0.91,9.01,1.00,35.58,39.59,41.67,9.24,57.98,1006.39,1979.11,1130.62,1759.70,1810.12,500.27,471.86,30.05,0000 0000 0000 0000 000000
2014-07-30 11:09:49,0.96,9.05,1.00,35.60,39.62,41.70,9.27,58.17,1006.40,1979.01,1125.40,1756.53,1806.75,499.97,471.61,30.09,0000 0000 0000 0000 000000
2014-07-30 11:14:50,0.99,9.09,1.00,35.62,39.65,41.73,9.21,58.42,1006.41,1979.00,1120.09,1753.40,1803.38,499.80,471.61,30.13,0000 0000 0000 0000 000000
2014-07-30 11:19:52,0.94,9.13,1.00,35.66,39.68,41.76,9.23,58.44,1006.41,1978.95,1114.89,1750.33,1800.09,499.92,471.39,30.18,0000 0000 0000 0000 000000
2014-07-30 11:24:53,0.86,9.16,1.00,35.70,39.71,41.80,9.23,58.42,1006.45,1978.63,1109.91,1747.33,1796.80,499.98,471.48,30.22,0000 0000 0000 0000 000000
2014-07-30 11:29:54,0.88,9.20,1.00,35.71,39.74,41.82,9.23,58.61,1006.44,1978.19,1104.91,1744.34,1793.59,500.19,471.63,30.26,0000 0000 0000 0000 000000
2014-07-30 11:34:56,0.91,9.24,1.00,35.71,39.77,41.85,9.29,58.77,1006.50,1978.03,1099.97,1741.42,1790.52,500.30,471.67,30.30,0000 0000 0000 0000 000000
2014-07-30 11:39:57,0.95,9.28,1.00,35.72,39.80,41.87,9.31,58.98,1006.57,1978.00,1094.99,1738.46,1787.31,500.10,471.64,30.34,0000 0000 0000 0000 000000
2014-07-30 11:44:58,0.96,9.32,1.00,35.73,39.83,41.89,9.27,59.16,1006.75,1977.98,1089.92,1735.48,1784.19,499.79,471.55,30.39,0000 0000 0000 0000 000000
2014-07-30 11:49:59,1.19,9.36,1.00,35.72,39.85,41.91,9.25,59.36,1006.85,1977.98,1084.23,1732.10,1780.65,499.93,471.56,30.43,0000 0000 0000 0000 000000
2014-07-30 11:55:01,1.08,9.42,1.00,35.74,39.88,41.94,9.22,59.49,1006.84,1977.98,1078.61,1728.07,1776.45,499.68,471.22,30.47,0000 0000 0000 0000 000000
2014-07-30 12:00:02,0.92,9.46,1.00,35.73,39.90,41.96,9.26,59.48,1006.82,1977.99,1074.18,1724.99,1773.12,499.90,471.73,30.51,0000 0000 0000 0000 000000
2014-07-30 12:05:03,0.90,9.49,1.00,35.72,39.93,41.97,9.29,59.77,1006.81,1977.95,1070.01,1721.91,1769.82,499.92,471.56,30.55,0000 0000 0000 0000 000000
2014-07-30 12:10:05,0.81,9.53,1.00,35.71,39.94,41.99,9.28,59.65,1006.76,1977.50,1065.77,1718.82,1766.49,500.28,471.82,30.60,0000 0000 0000 0000 000000
2014-07-30 12:15:06,0.89,9.56,1.00,35.70,39.96,42.01,9.24,59.92,1006.77,1977.10,1061.12,1715.90,1763.31,499.97,471.68,30.64,0000 0000 0000 0000 000000
2014-07-30 12:20:07,0.92,9.60,1.00,35.69,39.98,42.03,9.21,60.00,1006.76,1977.03,1056.47,1713.03,1760.22,499.74,471.48,30.68,0000 0000 0000 0000 000000
2014-07-30 12:25:09,1.01,9.64,1.00,35.67,40.00,42.05,9.34,60.29,1006.80,1977.01,1051.45,1710.25,1757.21,500.29,471.93,30.72,0000 0000 0000 0000 000000
2014-07-30 12:30:10,0.93,9.68,1.00,35.67,40.02,42.06,9.27,60.52,1006.82,1977.01,1046.77,1707.35,1754.19,499.60,471.40,30.76,0000 0000 0000 0000 000000
2014-07-30 12:35:11,0.94,9.72,1.00,35.67,40.03,42.07,9.22,60.67,1006.84,1977.01,1042.51,1704.17,1750.88,499.88,471.69,30.80,0000 0000 0000 0000 000000
2014-07-30 12:40:12,1.12,9.77,1.00,35.66,40.05,42.09,9.28,60.73,1006.85,1977.00,1037.96,1700.25,1746.86,500.31,471.98,30.85,0000 0000 0000 0000 000000
2014-07-30 12:45:13,0.92,9.81,1.00,35.66,40.05,42.08,9.23,60.88,1006.85,1977.00,1033.96,1696.83,1743.31,499.83,471.60,30.89,0000 0000 0000 0000 000000
2014-07-30 12:50:14,0.88,9.85,1.00,35.66,40.07,42.10,9.29,61.02,1006.85,1977.00,1030.16,1693.70,1740.09,499.91,471.69,30.93,0000 0000 0000 0000 000000
2014-07-30 12:55:16,0.83,9.88,1.00,35.63,40.08,42.12,9.34,61.06,1006.85,1977.00,1026.58,1691.03,1737.30,500.04,471.77,30.97,0000 0000 0000 0000 000000
2014-07-30 13:00:17,0.77,9.92,1.00,35.63,40.09,42.12,9.31,61.13,1006.85,1977.00,1023.13,1688.38,1734.56,500.13,471.83,31.01,0000 0000 0000 0000 000000